Maxwell AFB, AL

10:04 AM CDT on May 21, 2018 (GMT -0500)
Maxwell Air Force Base

Weather History for KMXF - May, 2018

Change the Weather History Date:

Thursday, May 17, 2018

  Actual Average Record
Temperature  
Mean Temperature 76 °F -  
Max Temperature 86 °F 83 °F 93 °F (2000)
Min Temperature 66 °F 62 °F 50 °F (2011)
Cooling Degree Days 10    
Growing Degree Days 26 (Base 50)    
Moisture  
Dew Point 66 °F    
Average Humidity 81    
Maximum Humidity 96    
Minimum Humidity 48    
Precipitation  
Precipitation 0.15 in - - ()
Sea Level Pressure  
Sea Level Pressure 29.87 in    
Wind  
Wind Speed 5 mph (NNE)    
Max Wind Speed 15 mph    
Max Gust Speed 30 mph    
Visibility 10 miles    
Events Rain    
Averages and records for this station are not official NWS values.
T = Trace of Precipitation, MM = Missing Value Source: NWS Daily Summary

Daily Weather History Graph

Daily Weather History Graph

Search for Another Location

Airport or City:

Astronomy

May. 17, 2018 Rise Set
Actual Time 5:46 AM CDT 7:38 PM CDT
Civil Twilight 5:18 AM CDT 8:05 PM CDT
Nautical Twilight 4:46 AM CDT 8:38 PM CDT
Astronomical Twilight 4:11 AM CDT 9:13 PM CDT
Moon 7:49 AM CDT (5/17) 10:10 PM CDT (5/17)
Length of Visible Light 14h 46m
Length of Day
13h 52m
Waxing Crescent, 7% of the Moon is Illuminated
May 17
Waxing Crescent
May 21
First Quarter
May 29
Full
Jun 6
Last Quarter
Jun 13
New

Hourly Weather History & Observations

Time (CDT) Temp. Heat Index Dew Point Humidity Pressure Visibility Wind Dir Wind Speed Gust Speed Precip Events Conditions
12:41 AM 73.4 °F - 69.8 °F 88% 29.90 in 10.0 mi North 6.9 mph - N/A   Overcast
12:44 AM 73.4 °F - 69.8 °F 88% 29.90 in 10.0 mi NNE 8.1 mph - N/A Rain Light Rain
12:56 AM 73.4 °F - 67.1 °F 81% 29.90 in 10.0 mi NE 13.8 mph - 0.00 in Rain Light Rain
1:11 AM 69.8 °F - 66.2 °F 88% 29.90 in 8.0 mi North 5.8 mph - N/A Rain Light Rain
1:15 AM 69.8 °F - 66.2 °F 88% 29.90 in 10.0 mi North 5.8 mph - N/A   Overcast
1:17 AM 69.8 °F - 66.2 °F 88% 29.90 in 10.0 mi North 5.8 mph - N/A Rain Light Rain
1:39 AM 69.8 °F - 66.2 °F 88% 29.88 in 10.0 mi Calm Calm - N/A   Overcast
1:42 AM 69.8 °F - 66.2 °F 88% 29.88 in 10.0 mi South 3.5 mph - N/A Rain Light Rain
1:56 AM 68.4 °F - 66.2 °F 93% 29.88 in 4.0 mi Calm Calm - 0.14 in Rain Heavy Rain
3:26 AM 68.0 °F - 66.2 °F 94% 29.84 in 10.0 mi Calm Calm - N/A   Mostly Cloudy
3:56 AM 66.9 °F - 65.5 °F 95% 29.84 in 10.0 mi Calm Calm - 0.01 in   Mostly Cloudy
4:56 AM 67.8 °F - 66.0 °F 94% 29.84 in 10.0 mi Calm Calm - N/A   Overcast
5:56 AM 67.5 °F - 66.2 °F 96% 29.86 in 10.0 mi WNW 4.6 mph - N/A   Overcast
6:56 AM 68.0 °F - 66.6 °F 95% 29.87 in 10.0 mi Calm Calm - N/A   Overcast
7:56 AM 70.0 °F - 67.3 °F 91% 29.89 in 10.0 mi Calm Calm - N/A   Overcast
8:41 AM 71.6 °F - 68.0 °F 88% 29.89 in 10.0 mi Calm Calm - N/A   Overcast
8:56 AM 71.2 °F - 67.5 °F 88% 29.90 in 10.0 mi ESE 3.5 mph - N/A   Overcast
9:41 AM 71.6 °F - 68.0 °F 88% 29.91 in 10.0 mi Calm Calm - N/A   Overcast
9:56 AM 72.5 °F - 67.6 °F 85% 29.91 in 10.0 mi Calm Calm - N/A   Overcast
10:56 AM 75.9 °F - 68.5 °F 78% 29.92 in 10.0 mi NE 3.5 mph - N/A   Overcast
11:26 AM 77.0 °F - 68.0 °F 74% 29.92 in 10.0 mi Calm Calm - N/A   Scattered Clouds
11:56 AM 78.3 °F - 68.9 °F 73% 29.91 in 10.0 mi ENE 4.6 mph - N/A   Clear
12:56 PM 81.7 °F 84.0 °F 66.4 °F 60% 29.88 in 10.0 mi NNE 5.8 mph - N/A   Clear
1:56 PM 83.8 °F 86.0 °F 65.8 °F 55% 29.85 in 10.0 mi NNE 8.1 mph - N/A   Clear
2:56 PM 85.5 °F 86.6 °F 63.5 °F 48% 29.84 in 10.0 mi NNE 4.6 mph - N/A   Clear
3:56 PM 80.4 °F 82.1 °F 64.2 °F 58% 29.86 in 10.0 mi West 15.0 mph 29.9 mph N/A   Scattered Clouds
4:56 PM 79.3 °F - 63.7 °F 59% 29.83 in 10.0 mi WNW 4.6 mph - N/A   Overcast
5:56 PM 78.1 °F - 64.4 °F 63% 29.80 in 10.0 mi Calm Calm - N/A   Clear
6:56 PM 77.0 °F - 63.3 °F 63% 29.82 in 10.0 mi Calm Calm - N/A   Mostly Cloudy
7:56 PM 74.1 °F - 67.1 °F 79% 29.86 in 10.0 mi SW 5.8 mph - N/A   Overcast
8:56 PM 70.7 °F - 64.9 °F 82% 29.86 in 10.0 mi South 9.2 mph - N/A   Clear
9:56 PM 69.3 °F - 64.6 °F 85% 29.87 in 10.0 mi Calm Calm - N/A   Overcast
10:56 PM 69.8 °F - 64.4 °F 83% 29.85 in 10.0 mi ESE 6.9 mph - N/A   Mostly Cloudy
11:56 PM 69.3 °F - 64.9 °F 86% 29.85 in 10.0 mi West 3.5 mph - N/A   Overcast